Wind_Speed
6 4 7 7 5 3 5 6 4 2 3 4 6 4 6 10 17 20 22 23 23 22 18 18 16 14 14 12 10 9 8 8 8 8 7 5 4 3 6 9 12 14 15 14
4 5 7 7 5 5 4 5 4 1 2 2 1 8 8 11 13 26 29 26 26 23 21 21 18 16 14 12 12 10 9 8 9 8 7 6 4 2 5 9 12 14 13 13
7 3 9 7 4 5 2 6 4 2 2 2 3 7 4 4 11 18 27 28 28 27 26 23 21 18 15 13 12 10 10 10 9 9 7 5 3 2 6 9 11 11 12 12
4 3 7 5 5 5 5 5 6 7 4 3 1 4 4 3 4 7 22 28 29 29 26 24 22 19 16 14 12 11 11 10 10 8 6 4 1 4 8 11 11 11 11 12
6 7 5 4 2 4 3 5 5 4 5 2 1 1 6 0 6 8 15 25 29 30 29 26 22 18 17 14 13 12 12 11 10 7 5 3 5 8 10 10 9 9 9 10
3 2 2 4 4 3 10 7 7 5 3 1 4 5 5 5 5 3 7 22 28 30 28 23 20 19 18 16 14 13 13 11 8 6 4 4 6 8 7 8 8 9 10 12
3 1 1 5 7 6 4 6 3 2 1 5 1 2 8 3 3 0 9 21 25 30 29 26 24 21 18 16 15 14 12 10 7 5 5 6 7 9 10 10 12 14 16 18
7 3 8 3 4 8 5 5 5 8 5 3 3 6 5 1 2 1 6 21 26 29 29 26 22 19 17 16 15 14 12 10 8 5 6 7 8 10 11 12 15 18 21 23
6 2 2 3 2 3 5 5 4 7 2 2 3 6 4 1 2 4 14 25 29 29 27 25 22 18 17 16 15 14 13 9 7 6 6 8 10 12 14 17 20 23 26 29
8 5 2 2 3 3 3 5 3 2 4 5 3 5 4 5 7 6 10 23 28 27 26 24 21 20 18 16 15 13 11 9 8 8 8 11 13 15 18 21 24 28 30 32
5 5 1 4 6 8 3 3 4 4 2 5 3 5 5 7 7 9 12 26 30 28 25 23 21 18 17 16 14 12 10 9 8 9 10 13 15 19 22 26 29 30 31 30
6 6 4 5 2 2 2 6 6 5 6 1 2 5 2 2 2 11 17 25 25 25 24 21 19 17 16 14 12 10 8 6 8 10 14 17 21 24 26 28 28 28 29 30
9 2 4 4 4 3 5 5 4 5 3 6 6 4 1 2 4 11 23 27 27 26 24 22 20 18 15 12 9 6 5 7 11 15 19 21 22 23 25 27 28 29 31 33
10 4 7 9 6 6 7 8 6 5 3 5 5 3 5 5 6 13 24 28 28 27 25 22 19 16 12 8 4 5 8 12 15 17 18 21 24 27 29 30 31 32 33 36
5 6 4 3 4 4 5 9 14 10 5 6 6 10 7 12 12 18 26 28 29 26 22 19 15 11 7 4 5 8 11 13 16 19 23 25 28 29 31 32 33 35 37 39
0 3 4 2 3 5 2 3 11 8 2 3 5 4 2 6 19 22 28 30 29 25 21 16 11 7 4 5 8 11 14 16 20 23 26 27 29 30 31 32 34 36 39 41
7 6 3 3 2 4 4 9 11 6 4 8 7 7 6 4 13 25 31 30 28 23 18 12 7 4 5 8 11 14 17 20 23 24 25 27 29 31 32 34 36 39 41 41
7 7 3 3 1 1 3 2 5 4 4 5 5 5 4 10 15 23 27 27 24 19 13 7 4 4 7 10 12 16 19 20 22 24 27 29 32 34 35 36 38 39 40 40
2 5 3 5 4 2 4 5 8 9 9 10 9 8 17 29 26 13 19 22 19 13 7 3 3 6 9 11 14 17 18 21 24 27 30 32 33 34 36 37 38 38 39 40
3 5 3 3 5 8 3 1 4 3 3 9 14 16 24 27 7 5 23 18 13 8 3 2 6 9 11 12 15 18 21 24 27 30 32 32 33 34 35 36 37 38 36 38
3 2 4 3 2 5 3 5 6 5 4 12 19 25 26 5 4 33 22 15 9 4 1 5 7 10 11 14 17 20 24 27 29 31 32 33 33 33 34 36 36 35 35 36
6 7 4 3 3 6 5 5 6 5 11 22 26 25 24 27 34 26 17 10 4 1 4 6 8 10 12 15 20 24 28 29 31 32 34 34 34 34 35 34 34 33 35 38
2 3 5 2 2 2 3 2 5 13 27 24 33 32 32 30 24 17 12 5 1 3 5 7 10 14 16 19 23 28 30 31 31 33 33 34 35 35 33 32 34 36 35 35
1 2 4 4 4 4 11 14 16 27 33 32 31 29 24 23 16 11 6 1 3 5 7 11 15 18 21 23 26 28 29 29 30 32 33 35 36 33 31 31 31 32 33 35
0 3 5 4 3 15 13 22 30 33 32 30 25 21 18 14 10 5 2 3 6 9 11 14 18 22 24 26 27 28 28 28 30 33 34 32 31 33 32 31 31 30 32 32
3 4 3 2 15 11 15 28 28 29 27 23 22 18 12 7 4 2 4 5 8 11 14 18 21 24 26 27 28 26 25 28 30 30 29 29 30 29 32 31 34 33 31 35
Wind_Direction
165 133 195 184 202 150 136 118 151 221 179 155 218 258 237 200 203 206 202 196 193 192 187 185 187 188 189 187 184 183 180 179 179 179 175 161 132 81 24 5 359 355 351 349
87 203 199 137 153 127 132 121 166 64 131 140 26 266 241 193 213 206 202 199 195 189 186 186 188 190 191 191 188 186 182 175 172 170 166 160 141 63 1 354 352 348 343 343
152 180 146 137 158 136 128 143 168 149 125 67 334 285 219 214 209 212 215 208 201 196 188 188 188 189 189 189 188 184 178 171 166 161 160 164 152 4 349 344 339 336 337 338
153 138 143 128 174 144 155 169 133 131 116 215 354 269 275 214 213 208 207 208 206 197 193 190 189 189 188 187 185 180 177 170 166 165 168 170 215 316 331 334 335 336 335 332
210 157 148 139 182 142 153 107 115 98 95 68 211 131 267 155 237 223 209 206 202 197 193 189 189 190 186 187 185 181 178 175 174 174 181 230 298 319 327 331 334 333 330 328
95 125 108 127 71 63 159 84 50 59 77 307 216 173 269 196 207 203 193 202 194 189 187 186 184 184 186 187 187 182 178 178 177 183 220 279 311 322 321 312 305 304 304 306
31 28 58 131 85 9 70 95 36 11 349 220 52 126 251 225 225 239 188 184 184 181 180 182 182 182 186 188 183 178 178 180 184 206 247 289 309 315 314 310 308 309 308 307
149 225 170 178 162 171 186 149 163 191 191 199 92 228 260 189 329 320 173 179 174 174 179 180 180 182 182 180 179 180 183 193 207 234 277 299 310 310 309 309 308 309 309 309
142 173 53 58 123 126 180 194 168 107 22 57 206 280 274 213 95 105 152 164 169 173 176 176 177 178 179 180 181 185 193 204 224 253 280 298 302 302 303 305 306 306 305 305
196 101 4 134 103 43 167 161 102 20 145 224 265 275 238 196 190 163 163 167 171 172 172 172 174 177 180 183 187 193 203 220 238 259 279 291 296 301 303 302 301 301 302 303
142 100 258 121 209 172 137 194 63 115 153 168 165 254 208 195 188 180 180 176 173 169 169 171 174 177 183 187 192 199 210 226 245 267 283 294 298 298 298 300 303 306 307 308
196 117 148 199 265 198 190 183 162 141 206 101 141 268 94 194 245 176 170 170 166 166 167 170 172 173 174 177 181 189 202 231 264 282 291 295 297 301 303 305 308 308 307 308
183 180 99 14 354 352 216 197 150 115 90 191 142 250 69 43 119 154 152 162 163 163 162 162 161 160 162 165 172 192 240 275 289 294 297 301 306 309 311 311 310 308 307 306
130 133 164 188 192 141 188 185 171 137 127 164 217 186 210 186 160 154 160 165 164 163 163 161 158 158 160 170 200 256 281 292 298 302 308 310 311 312 312 309 309 308 305 303
139 158 133 52 108 132 167 172 171 190 174 165 211 188 211 191 181 174 169 165 164 161 160 159 158 162 173 209 260 283 296 301 304 306 307 309 309 309 308 307 305 303 302 302
334 154 106 50 52 44 105 159 190 208 173 266 124 235 74 136 165 164 169 166 166 162 160 160 164 174 210 266 287 298 303 305 306 308 309 312 312 310 307 305 303 302 303 304
141 135 105 170 89 88 332 206 185 180 182 166 184 206 161 152 165 168 168 171 165 159 158 161 174 216 270 290 298 304 305 308 308 310 313 312 310 308 306 305 304 305 306 308
140 118 97 148 42 233 231 70 168 132 175 168 111 145 143 140 151 164 167 159 154 154 159 170 204 267 291 301 305 303 303 306 307 310 311 310 308 307 306 307 309 311 312 312
65 123 109 147 191 277 325 195 157 168 238 184 144 126 121 126 122 121 158 155 151 154 157 178 270 299 306 307 301 300 304 306 308 310 309 309 310 311 313 313 314 314 313 312
68 79 108 148 155 206 250 124 158 144 291 163 147 151 145 145 147 168 152 150 144 144 149 291 301 304 304 303 300 303 306 307 310 310 311 312 313 314 314 314 315 316 314 312
112 67 160 163 202 286 237 162 144 112 236 140 147 147 150 123 153 153 150 145 143 140 312 308 303 303 306 306 305 306 307 311 313 313 313 313 316 315 315 316 316 315 314 314
153 144 169 105 93 253 151 95 167 140 107 134 133 139 127 121 133 138 143 142 145 306 314 310 310 311 313 311 310 311 313 316 316 315 314 315 316 317 318 317 317 318 318 316
165 169 162 135 154 23 45 53 125 144 137 134 134 133 128 127 130 137 140 147 245 316 328 322 318 318 318 316 316 315 318 318 316 314 315 315 317 319 321 321 321 320 320 317
67 21 95 143 358 57 96 115 129 141 132 131 129 129 130 127 130 133 138 101 345 336 330 325 321 319 318 319 318 317 317 316 314 314 314 316 318 320 321 321 324 321 316 313
244 105 113 78 95 96 95 123 129 126 126 125 126 127 123 122 123 107 51 344 334 333 328 324 322 320 319 319 317 316 318 316 314 313 314 317 319 323 324 320 322 319 315 312
353 157 181 176 166 116 135 129 127 128 131 132 131 128 120 107 83 13 340 331 328 326 322 320 319 317 318 318 316 319 318 315 312 312 317 318 321 320 320 327 326 323 312 312
Height
1497 1503 1506 1508 1509 1506 1512 1514 1517 1521 1521 1523 1526 1524 1519 1521 1524 1525 1527 1530 1533 1537 1541 1544 1547 1550 1553 1555 1557 1558 1559 1561 1563 1564 1565 1567 1567 1567 1567 1566 1565 1564 1563 1562
1501 1502 1499 1502 1507 1507 1510 1512 1519 1522 1522 1523 1523 1519 1516 1517 1517 1518 1522 1526 1529 1534 1538 1541 1545 1548 1551 1553 1555 1557 1558 1560 1562 1563 1564 1566 1566 1566 1566 1565 1564 1562 1562 1561
1496 1493 1496 1499 1506 1506 1510 1511 1518 1516 1522 1524 1524 1517 1512 1511 1513 1515 1519 1522 1526 1530 1534 1539 1542 1546 1549 1552 1553 1555 1557 1559 1560 1562 1564 1565 1565 1565 1565 1563 1562 1561 1560 1559
1490 1493 1495 1499 1504 1505 1509 1508 1514 1520 1521 1525 1529 1521 1511 1510 1511 1511 1513 1516 1521 1527 1532 1537 1540 1544 1547 1550 1552 1553 1555 1557 1559 1561 1562 1563 1563 1563 1563 1562 1560 1559 1558 1557
1491 1494 1494 1497 1495 1498 1506 1509 1516 1521 1527 1527 1528 1529 1505 1511 1508 1506 1507 1510 1516 1522 1528 1533 1538 1542 1545 1548 1550 1552 1554 1556 1557 1559 1560 1561 1561 1561 1560 1559 1558 1558 1557 1555
1490 1490 1491 1494 1500 1501 1510 1512 1521 1528 1531 1533 1523 1524 1505 1504 1499 1500 1502 1506 1512 1519 1526 1532 1536 1540 1543 1546 1548 1551 1553 1555 1556 1557 1558 1559 1559 1558 1558 1557 1556 1555 1554 1552
1490 1491 1492 1492 1500 1506 1506 1511 1535 1535 1542 1525 1531 1531 1500 1495 1497 1497 1498 1503 1510 1517 1523 1529 1533 1537 1541 1544 1546 1549 1552 1553 1554 1555 1556 1556 1556 1556 1555 1554 1553 1553 1551 1550
1493 1501 1492 1490 1493 1498 1507 1504 1520 1520 1530 1522 1533 1520 1493 1496 1496 1496 1497 1503 1510 1516 1522 1527 1532 1536 1540 1543 1545 1548 1549 1551 1552 1553 1554 1554 1554 1554 1553 1552 1551 1550 1548 1546
1483 1484 1489 1489 1490 1491 1501 1509 1509 1526 1540 1528 1516 1508 1495 1497 1496 1497 1499 1504 1509 1515 1520 1525 1529 1534 1538 1541 1543 1545 1547 1549 1551 1551 1552 1552 1552 1551 1550 1549 1548 1546 1544 1541
1467 1487 1491 1491 1491 1495 1495 1499 1507 1519 1526 1513 1514 1512 1490 1495 1495 1499 1500 1502 1507 1512 1517 1522 1526 1531 1535 1538 1541 1543 1545 1547 1548 1549 1549 1549 1548 1547 1546 1545 1543 1540 1537 1534
1462 1472 1496 1492 1492 1491 1498 1497 1503 1505 1510 1509 1516 1497 1488 1487 1489 1493 1496 1500 1505 1511 1517 1521 1525 1529 1533 1536 1538 1540 1542 1544 1545 1545 1546 1545 1544 1543 1541 1539 1536 1533 1530 1527
1455 1476 1497 1490 1487 1487 1487 1489 1490 1497 1507 1522 1517 1496 1486 1488 1489 1491 1496 1502 1508 1513 1517 1521 1524 1527 1531 1534 1536 1538 1540 1541 1542 1542 1542 1541 1540 1538 1535 1533 1530 1528 1524 1521
1448 1470 1497 1491 1491 1489 1487 1486 1487 1496 1503 1509 1497 1489 1489 1489 1489 1491 1495 1502 1507 1511 1516 1520 1523 1527 1530 1533 1535 1537 1538 1539 1539 1538 1537 1536 1534 1532 1529 1526 1523 1520 1516 1514
1437 1455 1453 1457 1457 1468 1480 1478 1483 1481 1503 1496 1492 1482 1486 1489 1490 1492 1497 1501 1507 1511 1515 1519 1523 1526 1530 1532 1534 1535 1535 1535 1534 1533 1532 1529 1527 1524 1521 1519 1515 1512 1509 1505
1438 1456 1450 1458 1459 1459 1461 1466 1473 1479 1476 1477 1473 1478 1473 1478 1483 1489 1495 1501 1506 1510 1515 1519 1522 1525 1527 1530 1531 1531 1531 1530 1529 1527 1525 1522 1519 1517 1514 1510 1508 1505 1501 1497
1439 1459 1467 1474 1462 1463 1460 1465 1468 1468 1472 1472 1476 1477 1475 1478 1484 1491 1494 1499 1504 1510 1514 1518 1521 1523 1525 1527 1527 1527 1527 1525 1523 1521 1518 1516 1513 1509 1506 1503 1500 1496 1491 1487
1438 1454 1462 1458 1466 1469 1471 1458 1462 1463 1463 1462 1472 1464 1474 1481 1482 1485 1491 1497 1503 1508 1513 1516 1519 1521 1523 1524 1523 1523 1521 1519 1517 1514 1512 1509 1506 1502 1499 1495 1491 1486 1481 1477
1436 1443 1455 1479 1474 1473 1442 1448 1449 1453 1456 1460 1462 1466 1469 1473 1481 1487 1494 1498 1504 1508 1512 1515 1517 1518 1519 1520 1519 1518 1516 1514 1512 1509 1506 1503 1499 1495 1490 1486 1482 1476 1471 1465
1428 1434 1459 1459 1466 1450 1446 1447 1448 1448 1447 1453 1458 1467 1471 1475 1482 1493 1496 1500 1504 1508 1511 1513 1514 1515 1515 1515 1514 1512 1511 1509 1506 1503 1500 1496 1492 1486 1482 1477 1472 1468 1461 1456
1428 1429 1436 1459 1453 1444 1434 1438 1439 1440 1449 1447 1451 1460 1466 1471 1482 1491 1496 1500 1504 1507 1509 1511 1511 1511 1511 1510 1508 1507 1505 1503 1500 1496 1492 1488 1484 1479 1474 1469 1463 1458 1453 1447
1434 1435 1436 1441 1447 1441 1435 1437 1439 1447 1444 1446 1451 1458 1466 1472 1475 1485 1494 1499 1502 1505 1507 1507 1508 1508 1507 1506 1504 1502 1499 1496 1493 1489 1484 1480 1476 1472 1467 1460 1456 1451 1445 1439
1422 1429 1436 1441 1452 1439 1435 1439 1441 1443 1445 1448 1455 1463 1469 1473 1479 1488 1494 1498 1501 1503 1504 1505 1504 1504 1503 1501 1499 1496 1493 1489 1484 1480 1476 1472 1467 1463 1459 1453 1448 1444 1438 1430
1421 1415 1421 1426 1430 1436 1437 1438 1439 1441 1443 1453 1457 1466 1470 1477 1484 1490 1494 1497 1499 1500 1500 1500 1500 1499 1498 1496 1493 1488 1485 1481 1476 1472 1468 1464 1460 1455 1451 1446 1441 1435 1431 1424
1417 1416 1423 1427 1441 1439 1439 1440 1441 1445 1449 1457 1464 1470 1475 1479 1486 1490 1493 1494 1495 1496 1496 1495 1495 1494 1492 1489 1486 1483 1478 1474 1470 1465 1460 1456 1452 1447 1443 1439 1434 1429 1425 1418
1416 1416 1427 1440 1442 1441 1443 1445 1445 1451 1456 1462 1468 1473 1478 1481 1485 1488 1489 1491 1492 1493 1492 1491 1490 1488 1486 1483 1480 1477 1472 1468 1463 1458 1454 1450 1445 1440 1435 1433 1429 1424 1421 1415
1420 1421 1420 1421 1429 1432 1444 1448 1452 1455 1461 1466 1470 1476 1479 1481 1484 1486 1488 1489 1489 1489 1488 1487 1485 1483 1480 1476 1473 1470 1466 1463 1458 1453 1449 1445 1440 1436 1432 1426 1421 1419 1414 1408